Regional Weather Roundup
Issued by NWS Sterling, VA

Home | Current Version | Previous Version | Text Only | Print | Product List | Glossary Off
Versions: 1 2 3 4 5 6 7 8 9 10 11 12 13 14 15 16 17 18 19 20 21 22 23 24 25 26 27 28 29 30 31 32 33 34 35 36 37 38 39 40 41 42 43 44 45 46 47 48 49 50

348
ASUS41 KLWX 200110
RWRLWX

REGIONAL WEATHER ROUNDUP
NATIONAL WEATHER SERVICE BALTIMORE MD/WASHINGTON DC
800 PM EST THU JAN 19 2017

Note: "FAIR" indicates few or no clouds below 12,000 feet
with no significant weather and/or obstructions to visibility.
 TC=TEMPERATURE CELSIUS

 * =Non NWS site. Station does not report precipitation (e.g. rain,
    snow, etc.), thunder, or fog.

DCZ001-MDZ009-015-VAZ040>042-051-053>054-200200-
WASHINGTON METRO

CITY           SKY/WX    TMP DP  RH WIND       PRES   REMARKS
WASHINGTON NAT PTCLDY    44  39  82 S6        30.04R
DULLES         CLOUDY    36  33  89 S3        30.03S
ANDREWS AFB    CLOUDY    38  34  86 CALM      30.02S
FT BELVOIR     CLOUDY    38  35  89 CALM      30.03F
QUANTICO       CLOUDY    41  38  89 W3        30.05S
COLLEGE PARK*  CLOUDY    37  34  87 CALM      30.03S
LEESBURG*      CLOUDY    37  37 100 MISG      30.03S
GAITHERSBURG*  CLOUDY    37  30  75 CALM      30.06S

$$

MDZ006>007-011-014-200200-
BALTIMORE METRO

CITY           SKY/WX    TMP DP  RH WIND       PRES   REMARKS
BWI AIRPORT    CLOUDY    42  36  79 S6        30.03R
MD SCIENCE CTR   N/A     45  35  68 MISG      30.02S
MARTIN STATE   CLEAR     37  37 100 CALM      30.05R
ANNAPOLIS      CLOUDY    41  36  82 CALM      30.03S
FORT MEADE*    CLOUDY    34  32  93 CALM      30.05F

$$

MDZ012-015-019>023-200200-
MARYLAND EASTERN SHORE

CITY           SKY/WX    TMP DP  RH WIND       PRES   REMARKS
OCEAN CITY     CLOUDY    37  37 100 CALM      30.05R
SALISBURY      CLOUDY    36  34  92 CALM      30.05R
BAY BRIDGE AP* CLOUDY    41  36  81 CALM      30.04S
CAMBRIDGE*     CLOUDY    36  34  93 CALM      30.04S
EASTON*        CLEAR     41  36  81 CALM      30.08

$$

MDZ017>025-200200-
SOUTHERN MARYLAND

CITY           SKY/WX    TMP DP  RH WIND       PRES   REMARKS
PATUXENT RIVER CLOUDY    38  35  89 CALM      30.04S
ST INIGOES     CLOUDY    37  35  92 CALM      30.04S
LEONARDTOWN*   CLOUDY    37  34  87 CALM      30.05S

$$

MDZ003>005-200200-
NORTH CENTRAL MARYLAND

CITY           SKY/WX    TMP DP  RH WIND       PRES   REMARKS
FREDERICK*     NOT AVBL
HAGERSTOWN APT CLOUDY    42  32  67 CALM      30.01R
WESTMINSTER*   CLOUDY    37  34  87 CALM      30.01R

$$

MDZ501>502-200200-
WESTERN MARYLAND

CITY           SKY/WX    TMP DP  RH WIND       PRES   REMARKS
OAKLAND*         N/A     37  32  81 S5        29.94F
CUMBERLAND*    CLOUDY    39  36  87 CALM      30.04S

$$

VAZ025>031-200200-
SHENANDOAH VALLEY

CITY           SKY/WX    TMP DP  RH WIND       PRES   REMARKS
WINCHESTER*    CLOUDY    36  32  87 CALM      30.01R
FRONT ROYAL*   CLOUDY    37  36  93 CALM      29.99F
LURAY*         CLOUDY    39  37  93 CALM      29.99F
NEW MARKET*    CLOUDY    38  36  91 CALM      29.99F
STAUNTON*      CLOUDY    42  38  88 CALM      30.00F
WAYNESBORO*    CLOUDY    46  38  72 CALM      29.99S

$$

WVZ021-048>050-054>055-200200-
EASTERN WEST VIRGINIA PANHANDLE

CITY           SKY/WX    TMP DP  RH WIND       PRES   REMARKS
MARTINSBURG    CLOUDY    38  33  82 CALM      30.01R
PETERSBURG*    CLOUDY    39  37  93 CALM      30.00S

$$

VAZ036>039-050-200200-
CENTRAL FOOTHILLS

CITY           SKY/WX    TMP DP  RH WIND       PRES   REMARKS
CHARLOTTESVILL MOCLDY    48  39  71 CALM      30.00F
CULPEPER*      PTCLDY    35  34  94 CALM      30.03F
ORANGE*          N/A     41  41 100 CALM      30.03F
GORDONSVILLE*  PTCLDY    42  39  89 CALM      30.01F
WARRENTON*     PTCLDY    35  33  91 CALM      30.01F

$$

VAZ055>057-200200-
NORTH AND CENTRAL PIEDMONT

CITY           SKY/WX    TMP DP  RH WIND       PRES   REMARKS
FREDERICKSBRG* CLOUDY    40  38  91 CALM      30.02F
STAFFORD*      PTCLDY    36  35  96 CALM      30.07S

$$

NCZ024-NYZ072-PAZ021-071-VAZ022-071-200200-
OTHER REGIONAL OBSERVATIONS

CITY           SKY/WX    TMP DP  RH WIND       PRES   REMARKS
NEW YORK CITY  CLOUDY    43  32  65 W5        30.06S
PHILADELPHIA   CLOUDY    41  33  73 NE6       30.03F
PITTSBURGH     CLOUDY    36  33  89 CALM      29.97F
ROANOKE        PTCLDY    51  38  60 SE6       30.00F
RICHMOND       CLOUDY    43  39  86 CALM      30.03S
RALEIGH        CLOUDY    50  40  68 CALM      30.02R

$$

ANZ530>537-200200-
MARINE OBSERVATIONS

STATION/POSITION TIME  TEMP    WIND        PRES
                       AIR SEA DIR/SP/G
                 (UTC) (F)     (DEG/KT/KT) (MB)
THOMAS PT LIGHT  0000   42 39  220/  8/  8   N/A
BALT KEY BRIDGE  0030   44     180/  4/  4 1017.0R
COVE POINT       0030   44     210/  4/  5 1017.8R
LEWISETTA        0030   43 44  200/  4/  4 1017.0F
SOLOMONS ISLAND  0030   41 41   CALM  /  1   N/A
PINEY POINT      0030          150/  3/  3   N/A

$$





USA.gov is the U.S. government's official web portal to all federal, state and local government web resources and services.